| time (UTC) | temp F | wind direction | speed MPH | gust MPH | rain 1hr in | rain 24hr in | rain mn in | humidity % | barometer mb |
| 20260505194600 | 59 | 127 | 2.0 | 7.0 | 0.00 | 0.00 | 0.00 | 76 | 1005.8 |
| 20260505193057 | 58 | 115 | 2.0 | 8.0 | 0.00 | 0.00 | 0.00 | 76 | 1006.2 |
| 20260505191558 | 58 | 135 | 4.0 | 8.0 | 0.00 | 0.00 | 0.00 | 76 | 1006.2 |
| 20260505190055 | 58 | 144 | 4.0 | 8.0 | 0.00 | 0.00 | 0.00 | 76 | 1006.4 |
| 20260505184555 | 58 | 178 | 1.0 | 6.0 | 0.00 | 0.01 | 0.00 | 76 | 1006.3 |
| 20260505183053 | 58 | 162 | 4.0 | 8.0 | 0.00 | 0.01 | 0.00 | 76 | 1006.3 |
| 20260505181552 | 58 | 135 | 4.0 | 8.0 | 0.00 | 0.01 | 0.00 | 76 | 1006.6 |
| 20260505180055 | 57 | 145 | 4.0 | 8.0 | 0.00 | 0.01 | 0.00 | 77 | 1006.9 |
| 20260505174547 | 58 | 137 | 2.0 | 7.0 | 0.00 | 0.01 | 0.00 | 76 | 1007.3 |
| 20260505173045 | 58 | 174 | 2.0 | 9.0 | 0.00 | 0.01 | 0.00 | 75 | 1007.2 |
| 20260505171544 | 59 | 126 | 1.0 | 7.0 | 0.00 | 0.01 | 0.00 | 76 | 1007.5 |
| 20260505170044 | 59 | 125 | 2.0 | 9.0 | 0.00 | 0.01 | 0.00 | 74 | 1007.7 |
| 20260505164543 | 60 | 163 | 3.0 | 7.0 | 0.00 | 0.01 | 0.00 | 72 | 1007.7 |
| 20260505163040 | 58 | 125 | 1.0 | 6.0 | 0.00 | 0.01 | 0.00 | 75 | 1007.7 |
| 20260505161540 | 57 | 135 | 3.0 | 7.0 | 0.00 | 0.01 | 0.00 | 76 | 1008.3 |
| 20260505153044 | 57 | 114 | 3.0 | 6.0 | 0.00 | 0.01 | 0.00 | 75 | 1008.1 |
| 20260505151542 | 58 | 116 | 4.0 | 8.0 | 0.00 | 0.01 | 0.00 | 75 | 1008.2 |
| 20260505124525 | 54 | 116 | 1.0 | 6.0 | 0.00 | 0.01 | 0.00 | 77 | 1008.9 |
| 20260505123023 | 55 | 132 | 1.0 | 4.0 | 0.00 | 0.01 | 0.00 | 77 | 1009.2 |
| 20260505121520 | 53 | 140 | 0.0 | 5.0 | 0.00 | 0.01 | 0.00 | 79 | 1009.2 |
| 20260505120021 | 53 | 140 | 2.0 | 4.0 | 0.00 | 0.01 | 0.00 | 80 | 1009.3 |
| 20260505114515 | 52 | 134 | 0.0 | 5.0 | 0.00 | 0.01 | 0.00 | 81 | 1009.4 |
| 20260505113022 | 51 | 152 | 0.0 | 4.0 | 0.00 | 0.01 | 0.00 | 84 | 1009.3 |
| 20260505111525 | 49 | 152 | 0.0 | 2.0 | 0.00 | 0.01 | 0.00 | 86 | 1009.2 |
| 20260505101521 | 46 | 210 | 0.0 | 2.0 | 0.00 | 0.01 | 0.00 | 89 | 1009.0 |
| 20260505100010 | 45 | 210 | 0.0 | 2.0 | 0.00 | 0.01 | 0.00 | 88 | 1009.0 |
| 20260505094509 | 45 | 210 | 0.0 | 1.0 | 0.00 | 0.01 | 0.00 | 88 | 1009.0 |
| 20260505093007 | 46 | 210 | 0.0 | 1.0 | 0.00 | 0.01 | 0.00 | 86 | 1008.9 |
| 20260505091506 | 47 | 210 | 0.0 | 0.0 | 0.00 | 0.01 | 0.00 | 83 | 1008.8 |
| 20260505090006 | 49 | 210 | 0.0 | 1.0 | 0.00 | 0.01 | 0.00 | 79 | 1008.8 |
| 20260505084523 | 50 | 210 | 1.0 | 4.0 | 0.00 | 0.01 | 0.00 | 78 | 1008.7 |
| 20260505083005 | 51 | 210 | 0.0 | 6.0 | 0.00 | 0.01 | 0.00 | 76 | 1008.8 |
| 20260505081502 | 50 | 210 | 2.0 | 6.0 | 0.00 | 0.01 | 0.00 | 79 | 1008.8 |
| 20260505074600 | 46 | 211 | 0.0 | 0.0 | 0.00 | 0.01 | 0.00 | 86 | 1008.8 |
| 20260505073103 | 47 | 211 | 0.0 | 0.0 | 0.00 | 0.01 | 0.00 | 85 | 1008.8 |
| 20260505071601 | 46 | 211 | 0.0 | 1.0 | 0.00 | 0.01 | 0.00 | 87 | 1008.8 |
| 20260505070105 | 45 | 211 | 0.0 | 0.0 | 0.00 | 0.01 | 0.00 | 87 | 1008.7 |
| 20260505064559 | 45 | 211 | 0.0 | 0.0 | 0.00 | 0.01 | 0.00 | 86 | 1008.7 |
| 20260505063055 | 46 | 211 | 0.0 | 0.0 | 0.00 | 0.01 | 0.00 | 86 | 1008.7 |
| 20260505061613 | 46 | 210 | 0.0 | 0.0 | 0.00 | 0.01 | 0.00 | 85 | 1008.6 |
| 20260505060058 | 47 | 210 | 0.0 | 2.0 | 0.00 | 0.01 | 0.00 | 83 | 1008.6 |
| 20260505054556 | 49 | 211 | 0.0 | 2.0 | 0.00 | 0.01 | 0.00 | 82 | 1008.5 |
| 20260505053049 | 48 | 211 | 0.0 | 4.0 | 0.00 | 0.01 | 0.00 | 84 | 1008.5 |
| 20260505051545 | 43 | 137 | 0.0 | 0.0 | 0.00 | 0.01 | 0.00 | 91 | 1008.4 |
| 20260505041546 | 43 | 137 | 0.0 | 0.0 | 0.00 | 0.01 | 0.00 | 91 | 1008.3 |
| 20260505040055 | 43 | 137 | 0.0 | 0.0 | 0.00 | 0.01 | 0.00 | 90 | 1008.2 |
| 20260505034543 | 44 | 137 | 0.0 | 0.0 | 0.00 | 0.01 | 0.01 | 90 | 1008.3 |
| 20260505033039 | 44 | 137 | 0.0 | 0.0 | 0.00 | 0.01 | 0.01 | 90 | 1008.1 |
| 20260505031547 | 44 | 137 | 0.0 | 0.0 | 0.00 | 0.01 | 0.01 | 89 | 1008.2 |
| 20260505030042 | 45 | 137 | 0.0 | 0.0 | 0.00 | 0.01 | 0.01 | 89 | 1008.2 |
| 20260505024538 | 45 | 137 | 0.0 | 0.0 | 0.00 | 0.01 | 0.01 | 89 | 1008.3 |
| 20260505023037 | 45 | 137 | 0.0 | 0.0 | 0.00 | 0.01 | 0.01 | 89 | 1008.1 |
| 20260505021538 | 45 | 137 | 0.0 | 0.0 | 0.00 | 0.01 | 0.01 | 89 | 1008.3 |
| 20260505020041 | 45 | 137 | 0.0 | 0.0 | 0.00 | 0.01 | 0.01 | 88 | 1008.1 |
| 20260505014541 | 45 | 137 | 0.0 | 0.0 | 0.00 | 0.01 | 0.01 | 87 | 1008.1 |
| 20260505013035 | 46 | 137 | 0.0 | 0.0 | 0.00 | 0.01 | 0.01 | 87 | 1008.0 |
| 20260505011537 | 46 | 137 | 0.0 | 0.0 | 0.00 | 0.01 | 0.01 | 86 | 1007.9 |
| 20260505010036 | 47 | 137 | 0.0 | 0.0 | 0.00 | 0.01 | 0.01 | 85 | 1007.9 |
| 20260505004534 | 47 | 137 | 0.0 | 2.0 | 0.00 | 0.01 | 0.01 | 83 | 1007.8 |
| 20260505003032 | 49 | 139 | 0.0 | 4.0 | 0.00 | 0.01 | 0.01 | 80 | 1007.3 |
| 20260505001533 | 51 | 141 | 0.0 | 0.0 | 0.00 | 0.01 | 0.01 | 77 | 1007.1 |
| 20260505000046 | 52 | 141 | 0.0 | 0.0 | 0.00 | 0.01 | 0.01 | 73 | 1007.1 |
| 20260504234535 | 54 | 141 | 0.0 | 0.0 | 0.00 | 0.01 | 0.01 | 71 | 1006.9 |
| 20260504233031 | 56 | 141 | 1.0 | 5.0 | 0.00 | 0.01 | 0.01 | 67 | 1006.5 |
| 20260504231530 | 60 | 214 | 0.0 | 0.0 | 0.00 | 0.01 | 0.01 | 58 | 1006.2 |
| 20260504230030 | 61 | 214 | 0.0 | 1.0 | 0.00 | 0.01 | 0.01 | 56 | 1006.2 |
| 20260504224530 | 61 | 214 | 0.0 | 6.0 | 0.00 | 0.01 | 0.01 | 56 | 1006.1 |
| 20260504223029 | 61 | 310 | 1.0 | 6.0 | 0.00 | 0.01 | 0.01 | 54 | 1006.0 |
| 20260504221529 | 62 | 215 | 1.0 | 8.0 | 0.00 | 0.01 | 0.01 | 53 | 1005.9 |
| 20260504220042 | 61 | 320 | 1.0 | 5.0 | 0.00 | 0.01 | 0.01 | 56 | 1006.0 |
| 20260504214533 | 61 | 196 | 0.0 | 8.0 | 0.00 | 0.01 | 0.01 | 55 | 1005.9 |
| 20260504213031 | 62 | 204 | 2.0 | 10.0 | 0.00 | 0.01 | 0.01 | 54 | 1005.8 |
| 20260504211536 | 62 | 300 | 2.0 | 11.0 | 0.00 | 0.01 | 0.01 | 57 | 1005.7 |
| 20260504210026 | 62 | 283 | 3.0 | 8.0 | 0.00 | 0.01 | 0.01 | 57 | 1005.7 |
| 20260504204536 | 62 | 220 | 6.0 | 14.0 | 0.00 | 0.01 | 0.01 | 57 | 1005.6 |
| 20260504203025 | 62 | 243 | 5.0 | 13.0 | 0.00 | 0.01 | 0.01 | 56 | 1005.5 |
| 20260504201526 | 62 | 302 | 5.0 | 13.0 | 0.00 | 0.01 | 0.01 | 57 | 1005.6 |
| 20260504200023 | 62 | 268 | 2.0 | 10.0 | 0.00 | 0.01 | 0.01 | 63 | 1005.5 |